Hauptseite
METAR-TAF:

METAR-TAF

Flughäfen :

Monte Malanotte

Prato Nevoso, Italien

Breite: 44-15N, Länge: 007-48E, Höhe: 1741 m

Beobachtung

Neuester Wetterbericht von vor 8 Stunden und 8 Minuten, um 17:55 UTC
Wind 4 kt aus Nordost, variierte zwischen Nord und Ost/Nordost
Temperatur 26°C
Luftfeuchtigkeit 61%
Luftdruck 1016 hPa
Sichtweite 10 km oder mehr
keine Wolken unter 1500 m und keine Kumulonimbus oder Gewitterwolken

METAR: LIMY 251755Z 05004KT 010V070 CAVOK 26/18 Q1016 RMK FEW FEW200 VAL NIL VIS MIN 9999

Zeit: 04:03 (02:03 UTC)


TAF: fehlend

Wetterbeobachtungen und Prognosen von mehr als 4000 Flughäfen (METAR und TAF Bericht).

Die verfügbaren Stationen werden durch gelbe und rote Markierungen auf der Karte dargestellt.

Führen Sie die Maus auf sie, um den Namen der Station zu sehen.

Darauf klicken, um die Beobachtung von Wetterbeobachtungen und Prognosen zu sehen.

Um die Karte zu ändern : klicken Sie auf den grünen Tasten mit einem schwarzen Kreuz Zum Vergrößern, auf den grünen Button mit einem Gedankenstrich zu verkleinern, oder auf die grünen Pfeile für benachbarte Karten.


METAR-TAF: